Location: Hilton Head Island
(32.2163°N, 80.7526°W)
Time: 22:00:52
(UTC-04:00)

Transit 2A Rocket - Pass Details

Date: 09 February 2026
Orbit: 583 x 900 km, 66.7° (Epoch: 12 March)

Event Time Altitude Azimuth Distance (km) Brightness Sun altitude
Rises 18:40:09 0° 228° (SW) 3,422 9.5 -8.2°
Reaches altitude 10° 18:42:47 10° 237° (WSW) 2,520 8.9 -8.8°
Maximum altitude 18:48:09 36° 302° (WNW) 1,389 6.8 -9.9°
Drops below altitude 10° 18:53:40 10° 8° (N) 2,576 7.5 -11.0°
Sets 18:56:24 0° 17° (NNE) 3,508 8.1 -11.6°
